Location: Bottom School (historical)
(37.9078°N, 89.3593°W)
Time: 20:01:26
(UTC+00:00)

Cosmos 1570 Rocket - Pass Details

Date: 08 December 2021
Orbit: 763 x 788 km, 74.1° (Epoch: 16 January)

Event Time Altitude Azimuth Distance (km) Brightness Sun altitude
Rises 23:20:28 0° 201° (SSW) 3,223 7.9 -8.4°
Reaches altitude 10° 23:22:50 10° 203° (SSW) 2,298 7.2 -8.8°
Maximum altitude 23:28:03 74° 288° (WNW) 796 4.2 -9.8°
Drops below altitude 10° 23:33:16 10° 15° (NNE) 2,304 6.1 -10.7°
Sets 23:35:40 0° 17° (NNE) 3,233 6.9 -11.2°
